Location: Augustenthal
(51.7167°N, 10.2833°E)
Time: 19:50:47
(UTC+00:00)

ALOS 2 - Pass Details

Date: 23 September 2021
Orbit: 630 x 632 km, 97.9° (Epoch: 20 October)

Event Time Altitude Azimuth Distance (km) Brightness Sun altitude
Exits shadow 22:39:09 14° 347° (NNW) 1,759 5.5 -38.3°
Drops below altitude 10° 22:39:48 10° 347° (NNW) 2,026 5.9 -38.3°
Sets 22:42:01 0° 347° (NNW) 2,939 7.0 -38.4°
